Muenster, Germany

2:12 PM CEST on August 19, 2017 (GMT +0200)
Munster-Osnabruck

Weather History for EDDG - October, 2013

Change the Weather History Date:

Tuesday, October 22, 2013

  Actual Average Record
Temperature  
Mean Temperature 62 °F -  
Max Temperature 72 °F 49 °F 72 °F (2013)
Min Temperature 52 °F 38 °F 28 °F (1997)
Degree Days  
Heating Degree Days 3    
Growing Degree Days 12 (Base 50)    
Moisture  
Dew Point 55 °F    
Average Humidity 80    
Maximum Humidity 94    
Minimum Humidity 55    
Precipitation  
Precipitation 0.04 in - - ()
Sea Level Pressure  
Sea Level Pressure 29.75 in    
Wind  
Wind Speed 5 mph ()    
Max Wind Speed 10 mph    
Max Gust Speed -    
Visibility 14.9 miles    
Events Rain    
Averages and records for this station are not official NWS values.
T = Trace of Precipitation, MM = Missing Value Source: Averaged Metar Reports

Daily Weather History Graph

Daily Weather History Graph

Search for Another Location

Airport or City:

Trip Planner

Search our weather history database for the weather conditions in past years. The results will help you decide how hot, cold, wet, or windy it might be!

Date:

Astronomy

Oct. 22, 2013 Rise Set
Actual Time 8:06 AM CEST 6:19 PM CEST
Civil Twilight 7:31 AM CEST 6:54 PM CEST
Nautical Twilight 6:52 AM CEST 7:33 PM CEST
Astronomical Twilight 6:13 AM CEST 8:13 PM CEST
Moon 8:27 PM CEST (10/22) 11:40 AM CEST (10/22)
Length of Visible Light 11h 22m
Length of Day
10h 13m
Waning Gibbous, 88% of the Moon is Illuminated
Oct 22
Waning Gibbous
Oct 27
Last Quarter
Nov 3
New
Nov 10
First Quarter
Nov 17
Full

Hourly Weather History & Observations

Time (CEST) Temp. Dew Point Humidity Pressure Visibility Wind Dir Wind Speed Gust Speed Precip Events Conditions
12:00 AM 58 °F 53 °F 80% 29.90 in 19 mi SE 6.7 mph - -   Scattered Clouds
12:20 AM 57.2 °F 51.8 °F 82% 29.89 in - SE 5.8 mph - N/A   Clear
12:50 AM 57.2 °F 51.8 °F 82% 29.89 in - SE 4.6 mph - N/A   Clear
1:00 AM 57 °F 52 °F 79% 29.89 in 16 mi SE 4.5 mph - -   Scattered Clouds
1:20 AM 57.2 °F 51.8 °F 82% 29.89 in - SE 5.8 mph - N/A   Clear
1:50 AM 57.2 °F 51.8 °F 82% 29.86 in - SE 4.6 mph - N/A   Clear
2:00 AM 56 °F 52 °F 80% 29.89 in 16 mi SE 4.5 mph - -   Scattered Clouds
2:20 AM 55.4 °F 51.8 °F 88% 29.86 in - ESE 4.6 mph - N/A   Clear
2:50 AM 55.4 °F 51.8 °F 88% 29.86 in - ESE 4.6 mph - N/A   Clear
3:00 AM 55 °F 51 °F 83% 29.88 in 16 mi ESE 4.5 mph - -   Clear
3:20 AM 53.6 °F 51.8 °F 94% 29.86 in - ESE 3.5 mph - N/A   Clear
3:50 AM 53.6 °F 51.8 °F 94% 29.86 in - ESE 3.5 mph - N/A   Clear
4:00 AM 54 °F 51 °F 86% 29.86 in 16 mi ESE 4.5 mph - -   Mostly Cloudy
4:20 AM 53.6 °F 51.8 °F 94% 29.83 in - Variable 3.5 mph - N/A   Clear
4:50 AM 53.6 °F 50.0 °F 88% 29.83 in - ESE 3.5 mph - N/A   Clear
5:00 AM 53 °F 51 °F 89% 29.85 in 16 mi ESE 4.5 mph - -   Partly Cloudy
5:20 AM 53.6 °F 51.8 °F 94% 29.83 in - SE 2.3 mph - N/A   Clear
5:50 AM 53.6 °F 50.0 °F 88% 29.83 in - ESE 2.3 mph - N/A   Clear
6:00 AM 53 °F 51 °F 88% 29.85 in 16 mi ESE 2.2 mph - -   Partly Cloudy
6:20 AM 53.6 °F 51.8 °F 94% 29.83 in - SE 3.5 mph - N/A   Clear
6:50 AM 53.6 °F 51.8 °F 94% 29.80 in - ESE 4.6 mph - N/A   Clear
7:20 AM 53.6 °F 51.8 °F 94% 29.80 in - ESE 2.3 mph - N/A   Clear
7:50 AM 53.6 °F 51.8 °F 94% 29.80 in - ESE 2.3 mph - N/A   Clear
8:00 AM 54 °F 52 °F 91% 29.81 in 16 mi ESE 2.2 mph - -   Scattered Clouds
8:20 AM 55.4 °F 53.6 °F 94% 29.80 in - East 4.6 mph - N/A   Clear
8:50 AM 55.4 °F 53.6 °F 94% 29.77 in - ESE 2.3 mph - N/A   Clear
9:00 AM 56 °F 54 °F 90% 29.80 in 16 mi ESE 2.2 mph - -   Scattered Clouds
9:20 AM 57.2 °F 53.6 °F 88% 29.80 in - SE 4.6 mph - N/A   Clear
9:50 AM 57.2 °F 55.4 °F 94% 29.80 in - SE 4.6 mph - N/A   Clear
10:00 AM 58 °F 55 °F 86% 29.80 in 16 mi SE 4.5 mph - -   Scattered Clouds
10:20 AM 59.0 °F 55.4 °F 88% 29.77 in - SE 5.8 mph - N/A   Clear
10:50 AM 60.8 °F 57.2 °F 88% 29.77 in 6.2 mi SE 5.8 mph - N/A   Mostly Cloudy
11:00 AM 62 °F 57 °F 78% 29.78 in 11 mi SE 6.7 mph - -   Scattered Clouds
11:20 AM 62.6 °F 59.0 °F 88% 29.77 in - SE 6.9 mph - N/A   Clear
11:50 AM 64.4 °F 59.0 °F 83% 29.77 in - SSE 8.1 mph - N/A   Clear
12:00 PM 65 °F 59 °F 74% 29.77 in 12 mi SSE 8.9 mph - -   Clear
12:20 PM 66.2 °F 59.0 °F 78% 29.74 in - SSE 9.2 mph - N/A   Clear
12:50 PM 68.0 °F 59.0 °F 73% 29.74 in - SSE 10.4 mph - N/A   Clear
1:00 PM 69 °F 59 °F 64% 29.74 in 12 mi SSE 8.9 mph - -   Clear
1:20 PM 69.8 °F 59.0 °F 68% 29.71 in - SSE 10.4 mph - N/A   Clear
1:50 PM 69.8 °F 59.0 °F 68% 29.71 in - South 10.4 mph - N/A   Clear
2:20 PM 71.6 °F 59.0 °F 64% 29.71 in - SSE 8.1 mph - N/A   Clear
2:50 PM 71.6 °F 59.0 °F 64% 29.68 in - SSE 9.2 mph - N/A   Clear
3:00 PM 71 °F 59 °F 58% 29.69 in 22 mi SSE 8.9 mph - -   Clear
3:20 PM 71.6 °F 57.2 °F 60% 29.68 in - SSE 10.4 mph - N/A   Clear
3:50 PM 71.6 °F 59.0 °F 64% 29.68 in - SSE 9.2 mph - N/A   Clear
4:00 PM 72 °F 59 °F 55% 29.68 in 22 mi SSE 8.9 mph - -   Scattered Clouds
4:20 PM 71.6 °F 59.0 °F 64% 29.68 in - SSE 9.2 mph - N/A   Clear
4:50 PM 69.8 °F 59.0 °F 68% 29.65 in - SSE 8.1 mph - N/A   Clear
5:00 PM 70 °F 59 °F 59% 29.67 in 25 mi SSE 6.7 mph - -   Partly Cloudy
5:20 PM 69.8 °F 59.0 °F 68% 29.65 in - SE 6.9 mph - N/A   Clear
5:50 PM 68.0 °F 59.0 °F 73% 29.65 in - SE 6.9 mph - N/A   Clear
6:00 PM 69 °F 59 °F 62% 29.65 in 25 mi SE 6.7 mph - -   Partly Cloudy
6:20 PM 66.2 °F 59.0 °F 78% 29.65 in - SE 4.6 mph - N/A   Clear
6:50 PM 64.4 °F 59.0 °F 83% 29.65 in - SE 4.6 mph - N/A   Clear
7:20 PM 62.6 °F 57.2 °F 82% 29.65 in - SE 4.6 mph - N/A   Clear
7:50 PM 64.4 °F 57.2 °F 77% 29.65 in - ESE 3.5 mph - N/A   Clear
8:00 PM 64 °F 58 °F 73% 29.66 in 19 mi ESE 4.5 mph - -   Scattered Clouds
8:20 PM 64.4 °F 57.2 °F 77% 29.65 in - ESE 4.6 mph - N/A   Clear
8:50 PM 62.6 °F 57.2 °F 82% 29.65 in - ESE 2.3 mph - N/A   Clear
9:00 PM 62 °F 57 °F 79% 29.65 in 19 mi ESE 2.2 mph - -   Clear
9:20 PM 62.6 °F 57.2 °F 82% 29.62 in - ESE 4.6 mph - N/A   Clear
9:50 PM 62.6 °F 57.2 °F 82% 29.62 in - ESE 4.6 mph - N/A   Clear
10:00 PM 62 °F 56 °F 77% 29.63 in 19 mi ESE 4.5 mph - -   Clear
10:20 PM 62.6 °F 55.4 °F 77% 29.62 in - ESE 3.5 mph - N/A   Clear
10:50 PM 62.6 °F 55.4 °F 77% 29.59 in - East 2.3 mph - N/A   Clear
11:00 PM 62 °F 56 °F 74% 29.61 in 16 mi East 2.2 mph - -   Partly Cloudy
11:20 PM 62.6 °F 55.4 °F 77% 29.59 in - Variable 3.5 mph - N/A   Clear
11:50 PM 60.8 °F 55.4 °F 82% 29.59 in 6.2 mi SE 3.5 mph - N/A Rain Light Rain